Date String (YYYY-MM-DD hh:mm:ss) UTC,Instrument flags,absolute air pressure of the measurement (hPa),sample flow rate (lpm),inlet stack bypass flow (lpm),air temperature of the measurement (°C),ambient temperature measured by the external sensor (°C),aerosol sample conditioner tube jacket temperature (°C),OPC LED temperature (°C),internal box temperature (°C),relative humidity of the measurement (%),span deviation,mass concentration of particles derived from Lorenz-Mie calculation of OPC scattering (μg/m³),mass concentration of particles derived from Lorenz-Mie calculation of OPC scattering (μg/m³),mass concentration of particles derived from Lorenz-Mie calculation of OPC scattering (μg/m³)
DateTimeUTC,F1_M11,P_M11,Q1_M11,Q2_M11,T1_M11,T2_M11,T3_M11,T4_M11,T5_M11,U1_M11,ZSPAN_M11,X0_M11,X2_M11,X1_M11
2024-04-01 13:00:00,SystemResetWarning,0820.5,5.00,000.00,020.3,019.7,000.0,028.9,022.1,26.0,0000.0,0001.60,0001.12,0001.02
2024-04-01 13:01:00,SystemResetWarning,0820.5,5.00,000.00,020.3,019.7,000.0,028.9,022.1,25.9,0000.0,0001.33,0001.10,0001.00
2024-04-01 13:02:00,SystemResetWarning,0820.6,5.01,000.00,020.3,019.6,000.0,028.9,022.1,26.0,0000.0,0001.34,0001.10,0000.99
2024-04-01 13:03:00,SystemResetWarning,0820.6,5.01,000.00,020.3,019.6,000.0,028.9,022.1,26.0,0000.0,0001.38,0001.11,0000.98
2024-04-01 13:04:00,SystemResetWarning,0820.6,5.00,000.00,020.3,019.7,000.0,028.9,022.1,26.1,0000.0,0001.39,0001.11,0000.98
2024-04-01 13:05:00,SystemResetWarning,0820.5,5.00,000.00,020.3,019.7,000.0,028.9,022.1,26.0,0000.0,0001.42,0001.12,0000.97
2024-04-01 13:06:00,SystemResetWarning,0820.6,5.00,000.00,020.3,019.7,000.0,028.9,022.1,26.0,0000.0,0001.46,0001.12,0000.97
2024-04-01 13:07:00,SystemResetWarning,0820.6,5.00,000.00,020.3,019.7,000.0,028.9,022.1,26.0,0000.0,0001.42,0001.12,0000.98
2024-04-01 13:08:00,SystemResetWarning,0820.6,5.00,000.00,020.3,019.7,000.0,028.9,022.1,25.9,0000.0,0001.43,0001.13,0000.98
2024-04-01 13:09:00,SystemResetWarning,0820.7,4.99,000.00,020.3,019.7,000.0,028.9,022.1,25.9,0000.0,0001.48,0001.16,0000.99
2024-04-01 13:10:00,SystemResetWarning,0820.7,5.00,000.00,020.3,019.7,000.0,028.9,022.1,26.0,0000.0,0001.50,0001.18,0001.01
2024-04-01 13:11:00,SystemResetWarning,0820.8,5.00,000.00,020.3,019.6,000.0,028.9,022.1,26.2,0000.0,0001.53,0001.19,0001.02
2024-04-01 13:12:00,SystemResetWarning,0820.8,5.01,000.00,020.3,019.6,000.0,028.9,022.1,26.8,0000.0,0001.53,0001.17,0001.02
2024-04-01 13:13:00,SystemResetWarning,0820.8,5.01,000.00,020.3,019.6,000.0,028.9,022.1,26.9,0000.0,0001.54,0001.17,0001.02
2024-04-01 13:14:00,SystemResetWarning,0820.8,5.00,000.00,020.3,019.6,000.0,028.9,022.1,26.6,0000.0,0001.47,0001.14,0001.01
2024-04-01 13:15:00,SystemResetWarning,0820.8,4.99,000.00,020.3,019.6,000.0,028.9,022.1,26.5,0000.0,0001.44,0001.12,0001.00
2024-04-01 13:16:00,SystemResetWarning,0820.8,4.99,000.00,020.3,019.6,000.0,028.9,022.1,26.5,0000.0,0001.39,0001.11,0001.01
2024-04-01 13:17:00,SystemResetWarning,0820.8,5.00,000.00,020.3,019.6,000.0,028.9,022.1,26.4,0000.0,0001.38,0001.11,0001.00
2024-04-01 13:18:00,SystemResetWarning,0820.8,5.00,000.00,020.3,019.6,000.0,028.9,022.1,26.3,0000.0,0001.43,0001.12,0000.99
2024-04-01 13:19:00,SystemResetWarning,0820.8,5.00,000.00,020.3,019.6,000.0,028.9,022.1,26.4,0000.0,0001.45,0001.13,0001.00
2024-04-01 13:20:00,SystemResetWarning,0820.8,5.00,000.00,020.3,019.6,000.0,028.9,022.1,26.6,0000.0,0001.41,0001.11,0001.01
2024-04-01 13:21:00,SystemResetWarning,0820.7,5.01,000.00,020.3,019.6,000.0,028.9,022.1,26.7,0000.0,0001.43,0001.12,0001.02
2024-04-01 13:22:00,SystemResetWarning,0820.8,5.00,000.00,020.3,019.6,000.0,028.9,022.1,26.7,0000.0,0001.45,0001.13,0001.02
2024-04-01 13:23:00,SystemResetWarning,0820.8,5.01,000.00,020.3,019.6,000.0,028.9,022.1,26.7,0000.0,0001.53,0001.17,0001.04
2024-04-01 13:24:00,SystemResetWarning,0820.8,5.00,000.00,020.3,019.5,000.0,028.9,022.1,26.7,0000.0,0001.54,0001.19,0001.05
2024-04-01 13:25:00,SystemResetWarning,0820.8,4.99,000.00,020.3,019.5,000.0,028.9,022.0,26.8,0000.0,0001.58,0001.21,0001.07
2024-04-01 13:26:00,SystemResetWarning,0820.8,4.99,000.00,020.2,019.5,000.0,028.9,022.0,26.8,0000.0,0001.61,0001.23,0001.08
2024-04-01 13:27:00,SystemResetWarning,0820.8,5.01,000.00,020.2,019.4,000.0,028.9,022.0,26.9,0000.0,0001.68,0001.26,0001.09
2024-04-01 13:28:00,SystemResetWarning,0820.8,5.00,000.00,020.2,019.4,000.0,028.9,022.0,26.9,0000.0,0001.71,0001.27,0001.11
2024-04-01 13:29:00,SystemResetWarning,0820.8,5.01,000.00,020.2,019.4,000.0,028.8,022.0,26.9,0000.0,0001.68,0001.28,0001.13
2024-04-01 13:30:00,SystemResetWarning,0820.8,5.00,000.00,020.2,019.5,000.0,028.8,022.0,27.0,0000.0,0001.71,0001.30,0001.15
2024-04-01 13:31:00,SystemResetWarning,0820.8,4.99,000.00,020.2,019.5,000.0,028.8,022.0,27.0,0000.0,0001.78,0001.35,0001.18
2024-04-01 13:32:00,SystemResetWarning,0820.8,5.00,000.00,020.2,019.5,000.0,028.8,022.0,27.0,0000.0,0001.86,0001.40,0001.22
2024-04-01 13:33:00,SystemResetWarning,0820.8,5.02,000.00,020.2,019.5,000.0,028.8,022.0,27.0,0000.0,0001.91,0001.44,0001.26
2024-04-01 13:34:00,SystemResetWarning,0820.8,5.01,000.00,020.2,019.5,000.0,028.8,022.0,27.1,0000.0,0001.84,0001.43,0001.27
2024-04-01 13:35:00,SystemResetWarning,0820.9,4.99,000.00,020.2,019.5,000.0,028.8,022.0,27.1,0000.0,0001.97,0001.48,0001.29
2024-04-01 13:36:00,SystemResetWarning,0821.3,4.99,000.00,020.2,019.4,000.0,028.8,022.0,27.0,0000.0,0002.05,0001.51,0001.31
2024-04-01 13:37:00,SystemResetWarning,0821.0,4.99,000.00,020.2,019.4,000.0,028.8,022.0,27.1,0000.0,0002.06,0001.52,0001.31
2024-04-01 13:38:00,SystemResetWarning,0821.0,5.00,000.00,020.2,019.4,000.0,028.8,022.0,27.2,0000.0,0002.10,0001.53,0001.33
2024-04-01 13:39:00,SystemResetWarning,0821.2,5.02,000.00,020.2,019.4,000.0,028.8,022.0,27.6,0000.0,0002.15,0001.56,0001.36
2024-04-01 13:40:00,SystemResetWarning,0821.4,5.00,000.00,020.2,019.4,000.0,028.8,022.0,27.9,0000.0,0002.22,0001.57,0001.38
2024-04-01 13:41:00,SystemResetWarning,0821.1,5.00,000.00,020.2,019.4,000.0,028.8,022.0,27.6,0000.0,0002.29,0001.58,0001.38
2024-04-01 13:42:00,SystemResetWarning,0821.2,5.00,000.00,020.2,019.4,000.0,028.8,022.0,27.6,0000.0,0002.29,0001.58,0001.37
2024-04-01 13:43:00,SystemResetWarning,0821.1,5.00,000.00,020.2,019.4,000.0,028.8,022.0,27.8,0000.0,0002.30,0001.58,0001.35
2024-04-01 13:44:00,SystemResetWarning,0821.1,5.00,000.00,020.2,019.5,000.0,028.8,022.0,27.9,0000.0,0002.23,0001.55,0001.33
2024-04-01 13:45:00,SystemResetWarning,0821.1,5.00,000.00,020.2,019.5,000.0,028.8,021.9,28.1,0000.0,0002.22,0001.54,0001.32
2024-04-01 13:46:00,SystemResetWarning,0821.4,5.00,000.00,020.2,019.5,000.0,028.8,021.9,28.5,0000.0,0002.08,0001.49,0001.32
2024-04-01 13:47:00,SystemResetWarning,0821.2,5.00,000.00,020.1,019.5,000.0,028.7,021.9,28.9,0000.0,0001.99,0001.47,0001.32
2024-04-01 13:48:00,SystemResetWarning,0821.0,5.00,000.00,020.2,019.5,000.0,028.7,021.9,29.1,0000.0,0002.03,0001.50,0001.33
2024-04-01 13:49:00,SystemResetWarning,0821.0,5.00,000.00,020.2,019.5,000.0,028.7,022.0,29.0,0000.0,0001.95,0001.48,0001.32
2024-04-01 13:50:00,SystemResetWarning,0821.0,5.00,000.00,020.2,019.4,000.0,028.7,022.0,29.0,0000.0,0001.88,0001.46,0001.30
2024-04-01 13:51:00,SystemResetWarning,0821.0,5.01,000.00,020.2,019.4,000.0,028.7,021.9,29.0,0000.0,0001.80,0001.45,0001.30
2024-04-01 13:52:00,SystemResetWarning,0821.0,5.00,000.00,020.2,019.4,000.0,028.8,021.9,29.2,0000.0,0001.73,0001.43,0001.29
2024-04-01 13:53:00,SystemResetWarning,0821.0,5.01,000.00,020.2,019.4,000.0,028.7,021.9,29.7,0000.0,0001.73,0001.43,0001.30
2024-04-01 13:54:00,SystemResetWarning,0820.9,5.00,000.00,020.2,019.4,000.0,028.7,021.9,30.3,0000.0,0001.73,0001.43,0001.30
2024-04-01 13:55:00,SystemResetWarning,0820.9,5.00,000.00,020.1,019.4,000.0,028.7,021.9,30.6,0000.0,0001.76,0001.43,0001.29
2024-04-01 13:56:00,SystemResetWarning,0821.0,5.00,000.00,020.1,019.4,000.0,028.7,021.9,31.2,0000.0,0001.83,0001.46,0001.30
2024-04-01 13:57:00,SystemResetWarning,0821.1,5.00,000.00,020.1,019.4,000.0,028.7,021.9,31.6,0000.0,0001.86,0001.46,0001.30
2024-04-01 13:58:00,SystemResetWarning,0821.0,4.99,000.00,020.1,019.4,000.0,028.7,021.9,31.6,0000.0,0002.15,0001.47,0001.31
2024-04-01 13:59:00,SystemResetWarning,0821.0,5.00,000.00,020.1,019.3,000.0,028.7,021.9,31.2,0000.0,0002.20,0001.48,0001.31
